Regional Weather Roundup
Issued by NWS Newport/Morehead, NC

Current Version | Previous Version | Text Only | Print | Product List | Glossary On
Versions: 1 2 3 4 5 6 7 8 9 10 11 12 13 14 15 16 17 18 19 20 21 22 23 24 25 26 27 28 29 30 31 32 33 34 35 36 37 38 39 40 41 42 43 44 45 46 47 48 49 50
000
ASUS42 KMHX 261225
RWRMHX
WEATHER ROUNDUP FOR EASTERN NORTH CAROLINA
NATIONAL WEATHER SERVICE NEWPORT/MOREHEAD CITY NC
800 AM EDT WED APR 26 2017

NOTE: "FAIR" INDICATES FEW OR NO CLOUDS BELOW 12,000 FEET
WITH NO SIGNIFICANT WEATHER AND/OR OBSTRUCTIONS TO VISIBILITY

NCZ015>017-031-032-045>047-102-103-261300-
NORTH COAST

CITY           SKY/WX    TMP DP  RH WIND       PRES   REMARKS
EDENTON        NOT AVBL
ELIZABETH CITY CLOUDY    61  61 100 W8        29.77R
KITTY HAWK     CLOUDY    64  64 100 CALM      29.76R
MANTEO         CLOUDY    64  62  94 NW8       29.77R

$$

NCZ045>047-081-094-103-104-261300-
CENTRAL COAST

CITY           SKY/WX    TMP DP  RH WIND       PRES   REMARKS
FRISCO         CLOUDY    66  62  87 W8        29.78R FOG

$$

NCZ095-097-098-100-101-261300-
SOUTHERN COAST

CITY           SKY/WX    TMP DP  RH WIND       PRES   REMARKS
BEAUFORT       CLOUDY    63  62  97 W9        29.81R
CEDAR ISLAND   NOT AVBL
JACKSONVILLE   CLOUDY    63  62  97 W7        29.80R
PINEY ISLAND   CLOUDY   N/A N/A N/A SW7       29.80R
WILMINGTON     SUNNY     63  59  87 W6        29.82R


$$

NCZ011>013-027>030-043-044-078>080-089-090>093-098-261300-
COASTAL PLAIN

CITY           SKY/WX    TMP DP  RH WIND       PRES   REMARKS
AHOSKIE        LGT RAIN  59  57  94 CALM      29.80R
CLINTON        MOSUNNY   62  59  89 CALM      29.82R
ELIZABETHTOWN  PTSUNNY   63  60  89 CALM      29.82R
GOLDSBORO      PTSUNNY   63  63 100 W5        29.80R
GREENVILLE     CLOUDY    63  59  88 NW6       29.83R
HAVELOCK       CLOUDY    63  60  90 W6        29.81R
KENANSVILLE    CLOUDY    61  59  94 W3        29.82R
KINSTON        PTSUNNY   63  61  94 CALM      29.81R
NEW BERN       CLOUDY    62  61  96 W5        29.81R
RICHLANDS      CLOUDY    63  61  94 W6        29.82R
ROCKY MOUNT    CLOUDY    61  57  87 W6        29.80R
WASHINGTON     CLOUDY    62  59  91 W6        29.80R
WHITEVILLE     CLOUDY    60  59  96 CALM      29.82R

$$

AMZ130-135-150-152-154-156-158-170-250-252-270-ANZ085-086-088-633-658-670-261300-
MARINE OBSERVATIONS

STATION/POSITION TIME  TEMP    WIND        PRES    WAVE   SWELL
                       AIR SEA DIR/SP/G            HT/PER HT/PER
                 (UTC) (F)     (DEG/KT/KT) (MB)    (FT/S) (FT/S)
CHESAPEAKE LIGHT NOT AVBL
64 E VA BEACH    1150   56 54  250/  6/  8 1007.2    7/10   7/10
DUCK             1200   62 59  280/  9/ 11 1007.3
2 E DUCK         1200      60                N/A     5/ 9   2/11
OREGON INLET     1200   64 64  280/  6/ 10 1007.9
13E OREGON INLT  1148      61                N/A     6/ 9   7/ 9
HATTERAS CG      1200   65 68  240/  9/ 12 1008.1
DIAMOND BUOY     1150   69 77  270/ 14/ 17 1007.9    7/10   5/10
CAPE LOOKOUT     1200   63     290/ 12/ 13 1008.8
BEAUFORT LAB     1200   62 65  300/  6/  9 1008.5
30 SE NEW RVR IN 1208   64     300/ 12/ 16 1009.4
30 SE NEW RVR IN 1143      71                N/A     5/ 9   2/11
27 SE WRIGHTSVLE 1208   66 71  310/ 10/ 14 1009.2
5 SE WRIGHTSVLE  1208   64 69  290/  6/ 10 1009.6
225 S CAPE HAT   1150   73 75  220/ 16/ 19 1010.7    8/ 9   5/ 9
41 SE CHARLESTON 1210   72 73  210/  8/ 12 1009.6

$$



USA.gov is the U.S. government's official web portal to all federal, state and local government web resources and services.